ZHONGXING-6E

Last updated on Fri Sep 19 2025 00:02:52 GMT+0000 (Coordinated Universal Time)

1 58253U 23172A 25261.27336480 -.00000382 00000+0 00000+0 0 9999 2 58253 0.0433 257.8589 0003160 51.6857 261.7651 1.00267863 6930
UTC large
Height (km)
Speed (km/s)
/
Latitude / Longitude
Inclination (degrees)
Orbital Period (minutes)
Azimuth
Elevation
Range (km)
Doppler Factor

Next 0 passes for location: London (51.5072 / 0.1276)

Sorry there are no passes over London.